Terug naar catalogus

STARLINK-36045

ActiefCommunicatieVLEO
NORAD 66811·PAYLOAD·🇺🇸 United States

Gelanceerd Dec 1, 2025 vanaf Cape Canaveral Space Force Station

Loading…

Volgende Passages (komende 24 uur)

TLE

VersSource: CelesTrak SupGP

Epoch: Sep 15, 2026, 04:06 UTC

1 66811C 25278W   26258.17131944  .00039905  00000+0  14450-2 0  2588
2 66811  43.0019 124.3330 0001444 269.7667 218.2522 15.27566280    18

Volg STARLINK-36045 in realtime met AllMySat

Download on the App Store